Date String (YYYY-MM-DD hh:mm:ss) UTC,Instrument flags,Ambient pressure (hPa),Sample flow (lpm),Bypass flow (lpm),Sample temperature (°C),Ambient temperature (°C),ASC tube jacket temperature (°C),LED temperature (°C),Box temperature (°C),Sample RH (%),Span deviation,Mass concentration (μg/m³),Mass concentration (μg/m³),Mass concentration (μg/m³)
DateTimeUTC,F1_M11,P_M11,Q1_M11,Q2_M11,T1_M11,T2_M11,T3_M11,T4_M11,T5_M11,U1_M11,ZSPAN_M11,X0_M11,X2_M11,X1_M11
2021-10-01 13:00:00,,0831.5,5.00,0.00,28.3,27.3,00.0,37.5,30.0,19.8,0001.3,0007.57,0004.35,0003.93
2021-10-01 13:01:00,,0831.5,4.98,0.00,28.3,27.3,00.0,37.5,30.0,19.8,0001.7,0007.57,0004.35,0003.92
2021-10-01 13:02:00,,0831.6,4.99,0.00,28.3,27.3,00.0,37.5,30.0,19.9,0002.1,0007.56,0004.35,0003.91
2021-10-01 13:03:00,,0831.5,4.99,0.00,28.3,27.3,00.0,37.5,30.0,19.9,0002.4,0007.71,0004.38,0003.91
2021-10-01 13:04:00,,0831.5,5.01,0.00,28.3,27.3,00.0,37.5,30.0,19.7,0002.0,0008.24,0004.38,0003.90
2021-10-01 13:05:00,,0831.5,5.00,0.00,28.3,27.3,00.0,37.5,30.0,19.7,0001.8,0008.36,0004.39,0003.90
2021-10-01 13:06:00,,0831.5,5.00,0.00,28.3,27.3,00.0,37.5,30.0,19.7,0001.4,0008.34,0004.37,0003.89
2021-10-01 13:07:00,,0831.4,4.99,0.00,28.3,27.3,00.0,37.5,30.0,19.8,0001.0,0008.49,0004.40,0003.89
2021-10-01 13:08:00,,0831.4,4.99,0.00,28.3,27.3,00.0,37.4,30.0,19.9,0001.0,0008.74,0004.43,0003.90
2021-10-01 13:09:00,,0831.4,5.00,0.00,28.3,27.2,00.0,37.4,30.0,19.9,0000.6,0008.62,0004.42,0003.90
2021-10-01 13:10:00,,0831.4,5.00,0.00,28.2,27.2,00.0,37.4,30.0,19.8,0000.7,0008.60,0004.45,0003.91
2021-10-01 13:11:00,,0831.3,5.00,0.00,28.2,27.2,00.0,37.4,30.0,20.0,0000.3,0008.77,0004.47,0003.91
2021-10-01 13:12:00,,0831.3,5.01,0.00,28.2,27.2,00.0,37.4,30.0,20.0,-000.4,0009.17,0004.55,0003.92
2021-10-01 13:13:00,,0831.4,4.99,0.00,28.2,27.2,00.0,37.4,30.0,19.9,-001.0,0009.27,0004.58,0003.92
2021-10-01 13:14:00,,0831.3,5.00,0.00,28.2,27.2,00.0,37.4,30.0,19.8,-000.2,0009.11,0004.56,0003.92
2021-10-01 13:15:00,,0831.3,5.00,0.00,28.2,27.2,00.0,37.4,30.0,19.9,0000.0,0008.56,0004.55,0003.93
2021-10-01 13:16:00,,0831.3,5.01,0.00,28.2,27.2,00.0,37.4,30.0,19.9,-000.1,0008.49,0004.53,0003.92
2021-10-01 13:17:00,,0831.3,5.00,0.00,28.2,27.2,00.0,37.4,30.0,20.0,-001.0,0008.53,0004.55,0003.93
2021-10-01 13:18:00,,0831.4,5.00,0.00,28.2,27.2,00.0,37.4,30.0,20.0,-000.2,0008.72,0004.50,0003.92
2021-10-01 13:19:00,,0831.4,5.01,0.00,28.2,27.2,00.0,37.4,30.0,20.0,-000.2,0008.98,0004.48,0003.92
2021-10-01 13:20:00,,0831.3,5.00,0.00,28.2,27.3,00.0,37.4,30.0,20.1,-000.3,0009.46,0004.53,0003.93
2021-10-01 13:21:00,,0831.3,5.00,0.00,28.2,27.3,00.0,37.4,30.0,20.1,-000.3,0009.49,0004.54,0003.94
2021-10-01 13:22:00,,0831.4,5.00,0.00,28.2,27.2,00.0,37.4,30.0,20.0,0000.1,0009.33,0004.54,0003.95
2021-10-01 13:23:00,,0831.3,5.00,0.00,28.2,27.3,00.0,37.4,30.0,20.0,0000.2,0009.11,0004.53,0003.96
2021-10-01 13:24:00,,0831.3,5.00,0.00,28.2,27.3,00.0,37.4,30.0,20.0,0000.5,0009.17,0004.54,0003.96
2021-10-01 13:25:00,,0831.3,5.00,0.00,28.2,27.3,00.0,37.4,30.0,20.0,0000.9,0009.79,0004.58,0003.97
2021-10-01 13:26:00,,0831.3,5.00,0.00,28.2,27.3,00.0,37.4,30.0,20.0,0001.2,0009.90,0004.60,0003.98
2021-10-01 13:27:00,,0831.3,5.01,0.00,28.2,27.3,00.0,37.4,30.0,19.9,0000.9,0010.02,0004.62,0003.99
2021-10-01 13:28:00,,0831.3,5.02,0.00,28.2,27.2,00.0,37.4,30.0,19.9,0001.0,0009.96,0004.61,0003.99
2021-10-01 13:29:00,,0831.3,4.98,0.00,28.2,27.2,00.0,37.4,30.0,19.9,0001.2,0009.65,0004.62,0004.00
2021-10-01 13:30:00,,0831.3,4.99,0.00,28.2,27.2,00.0,37.4,30.0,19.9,0001.6,0009.16,0004.64,0004.02
2021-10-01 13:31:00,,0831.3,5.01,0.00,28.2,27.3,00.0,37.4,30.0,19.8,0001.6,0008.64,0004.62,0004.02
2021-10-01 13:32:00,,0831.3,4.99,0.00,28.2,27.3,00.0,37.4,30.0,19.8,0001.8,0008.85,0004.61,0004.02
2021-10-01 13:33:00,,0831.2,4.99,0.00,28.2,27.3,00.0,37.4,30.0,19.8,0001.6,0009.53,0004.59,0004.02
2021-10-01 13:34:00,,0831.2,4.99,0.00,28.2,27.3,00.0,37.4,30.0,19.8,0001.9,0009.47,0004.54,0004.02
2021-10-01 13:35:00,,0831.2,5.01,0.00,28.2,27.3,00.0,37.4,30.0,19.8,0001.9,0009.31,0004.51,0004.03
2021-10-01 13:36:00,,0831.2,5.00,0.00,28.2,27.3,00.0,37.4,30.0,19.8,0001.8,0008.73,0004.47,0004.03
2021-10-01 13:37:00,,0831.2,5.01,0.00,28.2,27.3,00.0,37.4,30.0,19.8,0001.6,0008.67,0004.45,0004.03
2021-10-01 13:38:00,,0831.3,4.99,0.00,28.2,27.3,00.0,37.4,30.0,19.8,0001.8,0008.53,0004.44,0004.04
2021-10-01 13:39:00,,0831.3,4.99,0.00,28.2,27.3,00.0,37.4,30.0,19.7,0001.2,0008.48,0004.43,0004.04
2021-10-01 13:40:00,,0831.3,5.01,0.00,28.2,27.3,00.0,37.4,30.0,19.8,0001.0,0008.72,0004.43,0004.03
2021-10-01 13:41:00,,0831.3,5.00,0.00,28.2,27.3,00.0,37.4,30.0,19.7,0001.4,0008.79,0004.42,0004.02
2021-10-01 13:42:00,,0831.2,5.00,0.00,28.2,27.3,00.0,37.4,30.0,19.7,0001.6,0008.74,0004.42,0004.03
2021-10-01 13:43:00,,0831.2,5.00,0.00,28.2,27.3,00.0,37.4,30.0,19.7,0001.4,0008.47,0004.40,0004.03
2021-10-01 13:44:00,,0831.2,5.01,0.00,28.2,27.3,00.0,37.4,30.0,19.7,0001.2,0007.96,0004.41,0004.04
2021-10-01 13:45:00,,0831.2,5.00,0.00,28.2,27.3,00.0,37.4,30.0,19.8,0000.6,0007.86,0004.41,0004.04
2021-10-01 13:46:00,,0831.2,5.00,0.00,28.2,27.3,00.0,37.4,30.0,19.8,0000.4,0007.88,0004.41,0004.04
2021-10-01 13:47:00,,0831.2,5.00,0.00,28.2,27.3,00.0,37.4,30.1,19.8,0000.4,0007.91,0004.42,0004.05
2021-10-01 13:48:00,,0831.2,5.01,0.00,28.2,27.3,00.0,37.4,30.0,19.8,0000.4,0008.00,0004.46,0004.06
2021-10-01 13:49:00,,0831.3,4.98,0.00,28.3,27.3,00.0,37.4,30.0,19.8,0000.3,0008.02,0004.47,0004.06
2021-10-01 13:50:00,,0831.3,5.00,0.00,28.3,27.3,00.0,37.4,30.0,19.8,0000.9,0008.01,0004.47,0004.07
2021-10-01 13:51:00,,0831.3,5.01,0.00,28.3,27.3,00.0,37.4,30.1,19.8,0001.1,0007.81,0004.46,0004.08
2021-10-01 13:52:00,,0831.4,5.01,0.00,28.3,27.4,00.0,37.4,30.0,19.8,0000.8,0007.77,0004.48,0004.08
2021-10-01 13:53:00,,0831.3,5.00,0.00,28.3,27.4,00.0,37.4,30.1,19.7,0000.8,0007.84,0004.49,0004.08
2021-10-01 13:54:00,,0831.3,4.99,0.00,28.3,27.4,00.0,37.4,30.1,19.7,0001.0,0007.93,0004.51,0004.08
2021-10-01 13:55:00,,0831.4,4.99,0.00,28.3,27.4,00.0,37.4,30.1,19.7,0001.3,0008.05,0004.52,0004.07
2021-10-01 13:56:00,,0831.3,5.00,0.00,28.3,27.4,00.0,37.4,30.1,19.6,0001.9,0008.35,0004.51,0004.07
2021-10-01 13:57:00,,0831.3,5.01,0.00,28.3,27.4,00.0,37.4,30.1,19.9,0002.2,0008.28,0004.48,0004.07
2021-10-01 13:58:00,,0831.4,5.00,0.00,28.3,27.4,00.0,37.4,30.1,20.4,0002.2,0008.53,0004.48,0004.05
2021-10-01 13:59:00,,0831.4,4.99,0.00,28.3,27.4,00.0,37.4,30.1,21.2,0001.9,0009.08,0004.43,0004.04
